This is the latest recevied weather packets stored in our database for station/object KD9WYV. If no packets are shown the sender has not sent any weather packets the latest 10 day(s).
| Time | Temp. | Humidity | Pressure | Rain* | Wind** | Luminosity | Snow |
|---|---|---|---|---|---|---|---|
| 1777506775 | 13.89° C | 60% | 1013.7 hPa | 0 mm | - | 31 W/m² | - |
| 1777506471 | 13.89° C | 58% | 1013.8 hPa | 0 mm | - | 37 W/m² | - |
| 1777506167 | 13.89° C | 57% | 1013.5 hPa | 0 mm | - | 48 W/m² | - |
| 1777505863 | 13.89° C | 56% | 1013.4 hPa | 0 mm | - | 66 W/m² | - |
| 1777505559 | 14.44° C | 55% | 1013.4 hPa | 0 mm | - | 28 W/m² | - |
| 1777505256 | 14.44° C | 53% | 1013.5 hPa | 0 mm | - | 20 W/m² | - |
| 1777504953 | 14.44° C | 53% | 1013.3 hPa | 0 mm | - | 46 W/m² | - |
| 1777504650 | 14.44° C | 52% | 1013.6 hPa | 0 mm | - | 55 W/m² | - |
| 1777504347 | 14.44° C | 54% | 1013.6 hPa | 0 mm | - | 84 W/m² | - |
| 1777504047 | 14.44° C | 55% | 1013.3 hPa | 0 mm | - | 92 W/m² | - |
| 1777503744 | 14.44° C | 55% | 1013.3 hPa | 0 mm | - | 64 W/m² | - |
| 1777503441 | 14.44° C | 55% | 1013.5 hPa | 0 mm | - | 58 W/m² | - |
| 1777503136 | 14.44° C | 55% | 1013.5 hPa | 0 mm | - | 90 W/m² | - |
| 1777502834 | 14.44° C | 54% | 1013.2 hPa | 0 mm | - | 46 W/m² | - |
| 1777502531 | 15° C | 55% | 1013.2 hPa | 0 mm | - | 76 W/m² | - |
| 1777502229 | 15° C | 53% | 1013.2 hPa | 0 mm | - | 98 W/m² | - |
| 1777501925 | 15° C | 52% | 1013.1 hPa | 0 mm | - | 137 W/m² | - |
| 1777501623 | 15.56° C | 52% | 1013 hPa | 0 mm | - | 99 W/m² | - |
| 1777501319 | 15° C | 54% | 1012.9 hPa | 0 mm | - | 208 W/m² | - |
| 1777501017 | 15° C | 54% | 1012.8 hPa | 0 mm | - | 123 W/m² | - |
| 1777500715 | 15.56° C | 54% | 1012.9 hPa | 0 mm | - | 148 W/m² | - |
| 1777500411 | 15.56° C | 53% | 1012.8 hPa | 0 mm | - | 120 W/m² | - |
| 1777500107 | 16.11° C | 51% | 1012.8 hPa | 0 mm | - | 108 W/m² | - |
| 1777499804 | 16.67° C | 49% | 1013 hPa | 0 mm | - | 151 W/m² | - |
| 1777499500 | 16.67° C | 49% | 1012.8 hPa | 0 mm | - | 156 W/m² | - |
* Rain latest hour (hover to see other rain measurements)
** Current wind speed in m/s (hover to see current wind gust speed)